Regional Weather Roundup
Issued by NWS Little Rock, AR

Home | Current Version | Previous Version | Graphics & Text | Print | Product List | Glossary On
Versions: 1 2 3 4 5 6 7 8 9 10 11 12 13 14 15 16 17 18 19 20 21 22 23 24 25 26 27 28 29 30 31 32 33 34 35 36 37 38 39 40 41 42 43 44 45 46 47 48 49 50
000
ASUS44 KLZK 210205
RWRLZK

WEATHER ROUNDUP FOR ARKANSAS
NATIONAL WEATHER SERVICE LITTLE ROCK AR
900 PM CDT MON APR 20 2015

NOTE: "FAIR" INDICATES FEW OR NO CLOUDS BELOW 12,000 FEET WITH NO
SIGNIFICANT WEATHER AND/OR OBSTRUCTIONS TO VISIBILITY.

ARZ001-003-010-029-210300-
NORTHWEST ARKANSAS

CITY           SKY/WX    TMP DP  RH WIND       PRES   REMARKS
FAYETTEVILLE   CLEAR     46  40  79 CALM      29.96R
FORT SMITH     CLEAR     55  37  50 NW5       29.96R
HARRISON       CLEAR     50  30  46 W3        29.94R
BENTONVILLE    CLEAR     52  30  43 CALM      29.96R
ROGERS         CLEAR     51  31  46 CALM      29.96R
SILOAM SPGS    CLEAR     48  32  53 CALM      29.97R
HIGHFILL       CLEAR     49  34  56 W3        29.95R
SPRINGDALE     CLEAR     54  32  43 CALM      29.97R
$$

ARZ004-005-016-210300-
NORTH CENTRAL ARKANSAS

CITY           SKY/WX    TMP DP  RH WIND       PRES   REMARKS
BATESVILLE     FAIR      55  32  41 NW5       29.94R
FLIPPIN        CLEAR     54 N/A N/A W3        29.93R
MTN HOME       CLEAR     52  31  44 CALM      29.93R
$$

ARZ040-041-210300-
WEST CENTRAL ARKANSAS

CITY           SKY/WX    TMP DP  RH WIND       PRES   REMARKS
MENA           CLEAR     50  41  71 CALM      29.98R
MOUNT IDA      CLEAR     53  38  56 CALM      29.95R
$$

ARZ009-017-025-026-028-210300-
NORTHEAST ARKANSAS

CITY           SKY/WX    TMP DP  RH WIND       PRES   REMARKS
CORNING          N/A     55  39  54 W8        29.91R
JONESBORO      CLEAR     57  35  43 NW7       29.90R
NEWPORT        CLEAR     57  37  47 NW9       29.93R
WALNUT RIDGE   CLEAR     55  34  44 W7        29.92R
BLYTHEVILLE    CLEAR     54  44  69 W8        29.89R
$$

ARZ022-023-033-042-044-210300-
CENTRAL ARKANSAS

CITY           SKY/WX    TMP DP  RH WIND       PRES   REMARKS
LITTLE ROCK    CLEAR     61  31  32 W8        29.94R
N LITTLE ROCK  CLEAR     58  37  44 W5        29.94R
JACKSONVILLE   CLEAR     56  37  47 W7        29.94R
SEARCY         CLEAR     59  35  40 NW5       29.95R
HOT SPRINGS    CLEAR     59  35  40 CALM      29.96R
RUSSELLVILLE   FAIR      53  39  59 CALM      29.95R
CLINTON        FAIR      52  37  58 CALM      29.97R
$$

ARZ036-210300-
EAST ARKANSAS

CITY           SKY/WX    TMP DP  RH WIND       PRES   REMARKS
WEST MEMPHIS   MOCLDY    58  44  60 CALM      29.90R
$$

ARZ050-053-066-070-073-210300-
SOUTHWEST ARKANSAS

CITY           SKY/WX    TMP DP  RH WIND       PRES   REMARKS
ARKADELPHIA    FAIR      59  41  51 NW5       29.96R
CAMDEN         CLEAR     54  41  62 CALM      29.95R
TEXARKANA      CLEAR     60  41  49 CALM      29.97R
EL DORADO      CLEAR     55  47  74 CALM      29.96R
DE QUEEN       CLEAR     56  41  57 CALM      29.96R
$$

ARZ056-057-069-210300-
SOUTHEAST ARKANSAS

CITY           SKY/WX    TMP DP  RH WIND       PRES   REMARKS
PINE BLUFF     CLEAR     60  40  47 W5        29.94R
STUTTGART      CLEAR     57  43  58 W8        29.93R
MONTICELLO     CLEAR     57  44  62 W3        29.94R

$$





USA.gov is the U.S. government's official web portal to all federal, state and local government web resources and services.